This demonstration page uses our WeatherBlox Daily Observations layout. Learn more.

36.17497, -115.13722

Hourly Observations for July 9, 2015

Temp ( °F °C ) Dew Point ( °F °C ) Humidity (%) Winds ( mph kmh ) Pressure ( in mb ) Visibility ( mi km ) Precip ( " mm )
12:53 am 00:53 Clear 84 28.9 44 6.7 25 25 S 9 15 29.65 1004 10 16.0934 0 0
1:53 am 01:53 Clear 82 27.8 45 7.2 27 27 S 10 17 29.66 1004 10 16.0934 0 0
2:53 am 02:53 Clear 81 27.2 45 7.2 28 28 S 13 20 29.67 1005 10 16.0934 0 0
3:53 am 03:53 Clear 79 26.1 45 7.2 30 30 S 8 13 29.67 1005 10 16.0934 0 0
4:53 am 04:53 Clear 77 25 45 7.2 32 32 SSE 10 17 29.7 1006 10 16.0934 0 0
5:53 am 05:53 Sunny 77 25 47 8.3 35 35 SSW 5 7 29.71 1006 10 16.0934 0 0
6:53 am 06:53 Sunny 78 25.6 48 8.9 35 35 SSE 7 11 29.73 1007 10 16.0934 0 0
7:53 am 07:53 Sunny 80 26.7 48 8.9 33 33 VRB 5 7 29.74 1007 10 16.0934 0 0
8:53 am 08:53 Sunny 83 28.3 45 7.2 26 26 SSE 14 22 29.74 1007 10 16.0934 0 0
9:53 am 09:53 Sunny 87 30.6 44 6.7 22 22 SSE 18 30 29.74 1007 10 16.0934 0 0
10:53 am 10:53 Sunny 87 30.6 42 5.6 21 21 SSE 15 24 29.74 1007 10 16.0934 0 0
11:53 am 11:53 Mostly Sunny 89 31.7 43 6.1 20 20 S 12 19 29.73 1007 10 16.0934 0 0
12:46 pm 12:46 Sunny 91 32.8 40 4.4 17 17 S 18 30 29.56 1001 10 16.0934 0 0
12:53 pm 12:53 Sunny 91 32.8 39 3.9 16 16 SE 14 22 29.71 1006 10 16.0934 0 0
1:53 pm 13:53 Partly Cloudy 93 33.9 36 2.2 13 13 SE 21 33 29.68 1005 10 16.0934 0 0
2:53 pm 14:53 Mostly Sunny 92 33.3 36 2.2 14 14 SSE 24 39 29.65 1004 10 16.0934 0 0
3:53 pm 15:53 Sunny 91 32.8 36 2.2 14 14 SSW 15 24 29.65 1004 10 16.0934 0 0
4:53 pm 16:53 Partly Cloudy with Light Rain 83 28.3 47 8.3 28 28 WNW 9 15 29.66 1005 10 16.0934 0 0.0254
5:53 pm 17:53 Sunny 90 32.2 39 3.9 17 17 WSW 14 22 29.64 1004 10 16.0934 0 0.0254
6:53 pm 18:53 Sunny 90 32.2 36 2.2 15 15 W 15 24 29.65 1004 10 16.0934 0 0
7:53 pm 19:53 Sunny 88 31.1 34 1.1 15 15 W 9 15 29.67 1005 10 16.0934 0 0
8:53 pm 20:53 Clear 86 30 36 2.2 17 17 W 7 11 29.68 1005 10 16.0934 0 0
9:53 pm 21:53 Clear 84 28.9 37 2.8 19 19 WSW 6 9 29.71 1006 10 16.0934 0 0
10:53 pm 22:53 Clear 83 28.3 37 2.8 19 19 SSW 12 19 29.72 1007 10 16.0934 0 0
11:53 pm 23:53 Clear 82 27.8 36 2.2 19 19 S 9 15 29.72 1007 10 16.0934 0 0

Powered by AerisWeather